Regional Weather Roundup
Issued by NWS

Home | Current Version | Previous Version | Graphics & Text | Print | Product List | Glossary Off
Versions: 1 2 3 4 5 6 7 8 9 10 11 12 13 14 15 16 17 18 19 20 21 22 23 24 25 26 27 28 29 30 31 32 33 34 35 36 37 38 39 40 41 42 43 44 45 46 47 48 49 50

000
ASUS43 KMPX 180001
RWRMN
WEATHER ROUNDUP FOR MINNESOTA
NATIONAL WEATHER SERVICE TWIN CITIES/CHANHASSEN MN
600 PM CST FRI NOV 17 2017


NOTE: "FAIR" INDICATES FEW OR NO CLOUDS BELOW 12,000 FEET WITH NO
SIGNIFICANT WEATHER AND/OR OBSTRUCTIONS TO VISIBILITY. N/A MEANS
CURRENT SKY AND/OR WEATHER CONDITIONS ARE NOT AVAILABLE.

MNZ060>063-068>070-180100-
   Twin Cities Metro

CITY           SKY/WX    TMP DP  RH WIND       PRES   REMARKS
TWIN CITIES    CLOUDY    38  38 100 N5        29.65R FOG
6HR MIN TEMP:  37; 6HR MAX TEMP:  38; 6HR PCP:  0.04;

ST PAUL        CLOUDY    38  38 100 CALM      29.65R
CRYSTAL        CLOUDY    38  34  85 N5        29.63R
BLAINE         CLOUDY    39  39 100 N6        29.64R FOG
LAKEVILLE      CLOUDY    36  36 100 CALM      29.63R FOG
EDEN PRAIRIE   CLOUDY    39  37  92 N5        29.63R FOG
6HR MIN TEMP:  38; 6HR MAX TEMP:  39;

SOUTH ST PAUL  CLOUDY    38  38 100 CALM      29.63R
LAKE ELMO      CLOUDY    36  36 100 CALM      29.64S FOG
$$
MNZ001>005-007-008-013>017-022>024-027-028-180100-
   Northwest Minnesota

CITY           SKY/WX    TMP DP  RH WIND       PRES   REMARKS
BEMIDJI        PTCLDY    28  21  77 NW7       29.68R WCI  20
HALLOCK        CLEAR     19  16  86 NW5       29.74R WCI  13
ROSEAU         CLEAR     21  16  79 W6        29.71R WCI  14
WARROAD        CLEAR     21  16  79 NW5       29.71R WCI  15
CROOKSTON      CLOUDY    21  16  79 NW6       29.75R WCI  14
FOSSTON        CLOUDY    21  18  86 NW7       29.71R WCI  13
DETROIT LAKES  CLOUDY    30  23  74 NW13      29.71R WCI  20
MOORHEAD       CLOUDY    28  18  64 N8        29.73S WCI  20
PARK RAPIDS    CLOUDY    33  28  81 NW8       29.66R WCI  26
MAHNOMEN       FAIR      26  20  79 NW5       29.70S WCI  20
$$
MNZ006-009>011-018-025>026-180100-
   North Central Minnesota

CITY           SKY/WX    TMP DP  RH WIND       PRES   REMARKS
BAUDETTE       CLEAR     23  17  78 W7        29.68R WCI  15
FLAG ISLAND    CLEAR     23  16  74 NW7       29.68R WCI  15
INTL FALLS     CLOUDY    30  23  75 NW12      29.66R WCI  20
6HR MIN TEMP:  30; 6HR MAX TEMP:  37;

WASKISH        CLOUDY    27  21  80 W6        29.69R WCI  20
BIG FORK       MOCLDY    32  28  86 NW3       29.66R
LONGVILLE      CLOUDY    30  28  93 CALM      29.65R
GRAND RAPIDS   CLOUDY    30  29  96 CALM      29.67R FOG
CRANE LAKE     CLOUDY    30  30 100 CALM      29.65R FOG
ORR            CLOUDY    32  30  93 CALM      29.62R
COOK           CLOUDY    32  30  93 CALM      29.64R FOG
WALKER         FAIR      32  27  83 NW6       29.67R WCI  26
$$
MNZ012-019>021-037-180100-
   Northeast Minnesota

CITY           SKY/WX    TMP DP  RH WIND       PRES   REMARKS
DULUTH         PTCLDY    32  32 100 CALM      29.64R FOG
6HR MIN TEMP:  32; 6HR MAX TEMP:  33; 6HR PCP:  0.05;

ELY            CLOUDY    32  32 100 CALM      29.63R
HIBBING        CLOUDY    32  31  96 CALM      29.64R FOG
EVELETH        CLOUDY    32  28  86 CALM      29.65R FOG
DULUTH HARBOR  CLOUDY    34  34 100 CALM      29.66F
TWO HARBORS    CLOUDY    36  30  80 CALM      29.62S FOG
SILVER BAY     CLOUDY    34  34 100 CALM      29.61S FOG
GRAND MARAIS     N/A     34  33  96 CALM      29.65R
G MARAIS ARPRT FOG       28  27  93 CALM      29.60F VSB 3/4
$$
MNZ029>031-032-039>041-046>048-054>057-064-180100-
   West Central Minnesota

CITY           SKY/WX    TMP DP  RH WIND       PRES   REMARKS
FERGUS FALLS   CLOUDY    30  23  74 N10       29.72R WCI  21
WHEATON        CLOUDY    34  27  75 NW7       29.72R WCI  28
MORRIS         CLOUDY    34  30  86 N9        29.66F WCI  26
ALEXANDRIA     CLOUDY    35  32  88 NW5       29.67R WCI  31
ELBOW LAKE     CLOUDY    32  28  85 NW9       29.68S WCI  24
WADENA         CLOUDY    34  28  80 NW6       29.66S WCI  29
GLENWOOD       CLOUDY    34  34 100 NW3       29.67S
APPLETON         N/A     37  32  81 CALM      29.67S
BENSON         CLOUDY    36  32  87 N7        29.68S
ORTONVILLE     CLOUDY    36  28  75 MISG      29.67F
MADISON        CLOUDY    39  34  81 NW7       29.68S
WILLMAR        FAIR      36  34  93 N5        29.67R
$$
MNZ033>034-036-042>043-049>051-058-059-180100-
   Central Minnesota

CITY           SKY/WX    TMP DP  RH WIND       PRES   REMARKS
ST CLOUD       CLOUDY    35  35 100 N3        29.65F FOG
6HR MIN TEMP:  35; 6HR MAX TEMP:  40; 6HR PCP:  0.01;

SAUK CENTRE    MOCLDY    33  32  95 NW3       29.67R
PAYNESVILLE    CLOUDY    33  33 100 NW3       29.67R
AITKIN         CLOUDY    28  27  93 CALM      29.65R FOG
PINE RIVER     CLOUDY    28  28 100 CALM      29.69S FOG
BRAINERD       CLOUDY    33  31  92 CALM      29.66R
STAPLES        CLOUDY    32  30  93 CALM      29.66R
LONG PRAIRIE   CLOUDY    32  32 100 W3        29.67R FOG
LITTLE FALLS   CLOUDY    34  32  93 CALM      29.67R
LITCHFIELD     CLOUDY    39  36  87 N5        29.65S
BUFFALO        CLOUDY    37  34  89 CALM      29.65S FOG
MAPLE LAKE     CLOUDY    37  35  92 N3        29.66R FOG
HUTCHINSON     MOCLDY    39  37  90 N5        29.66R
$$
MNZ037-044-045-052-053-180100-
   East Central Minnesota

CITY           SKY/WX    TMP DP  RH WIND       PRES   REMARKS
PRINCETON      CLOUDY    37  36  93 N3        29.65F FOG
MORA           CLOUDY    34  32  93 CALM      29.67S FOG
CAMBRIDGE      FOG       37  37 100 N3        29.65F VSB 1/2
RUSH CITY      FOG       35  34  96 CALM      29.65F VSB 1/2
MOOSE LAKE     CLOUDY    32  32 100 CALM      29.64R FOG
HINCKLEY       CLOUDY    34  34 100 CALM      29.65F FOG
CLOQUET        MOCLDY    32  30  93 CALM      29.65R FOG
MCGREGOR       PTCLDY    32  32 100 CALM      29.66R
$$
MNZ071>073-080-081-089-090-097-098-180100-
   Southwest Minnesota

CITY           SKY/WX    TMP DP  RH WIND       PRES   REMARKS
MONTEVIDEO     CLOUDY    36  32  87 N8        29.68R
GRANITE FALLS  PTCLDY    39  35  84 NW7       29.70R
CANBY          MOCLDY    37  32  82 N9        29.69R
MARSHALL       CLOUDY    38  33  82 N9        29.66R
REDWOOD FALLS  PTCLDY    40  33  76 N8        29.65R
OLIVIA         PTCLDY    36  32  87 N6        29.65R
PIPESTONE      CLOUDY    37  30  75 N8        29.64R
WINDOM           N/A     41  28  60 N15       29.62R
WORTHINGTON    CLOUDY    41  34  76 N13       29.63R
JACKSON        RAIN      41  36  81 N10G17    29.61S
SLAYTON        CLOUDY    38  33  80 N9        29.64R
$$
MNZ065>067-074>077-082>085-091>093-180100-
   South Central Minnesota

CITY           SKY/WX    TMP DP  RH WIND       PRES   REMARKS
MANKATO        FOG       38  38 100 NE6       29.63R VSB 1/4
NEW ULM        CLOUDY    39  36  87 CALM      29.63S
ST JAMES       PTCLDY    41  37  87 N6        29.63S
FAIRMONT       LGT RAIN  41  39  93 N5        29.61S
GLENCOE        CLOUDY    40  37  86 N5        29.63R
FARIBAULT      CLOUDY    37  37 100 CALM      29.63R FOG
OWATONNA       CLOUDY    37  37 100 CALM      29.62R FOG
WASECA         CLOUDY    36  36 100 N5        29.64R FOG
ALBERT LEA     CLOUDY    37  37 100 CALM      29.60R FOG
$$
MNZ078>079-086>088-094>096-180100-
   Southeast Minnesota

CITY           SKY/WX    TMP DP  RH WIND       PRES   REMARKS
ROCHESTER      CLOUDY    37  36  96 E3        29.60S FOG
6HR MIN TEMP:  35; 6HR MAX TEMP:  37; 6HR PCP:  0.06;

RED WING       CLOUDY    37  36  93 CALM      29.63R FOG
STANTON        CLOUDY    38  37  94 NE3       29.61S FOG
DODGE CENTER   FOG       36  36 100 NE3       29.60S VSB 1
WINONA         CLOUDY    36  36 100 CALM      29.63R FOG
AUSTIN         DRIZZLE   37  36  93 CALM      29.59R
PRESTON        CLOUDY    36  35  96 SE3       29.60S FOG
$$
ABBREVIATIONS USED IN REMARKS
   TC - TEMPERATURES IN CELSIUS
  WCI - WIND CHILL INDEX
   HX - HEAT INDEX
  VSB - VISIBILITY
$$



USA.gov is the U.S. government's official web portal to all federal, state and local government web resources and services.